RH
21 23 26 28 30 27 51 89 90 88 87 76 82 88 91 93 84 87 89 82 90 95 94 100 92 84 95 99 92 98 101 83 82 99 105 91 78 69 62 62 57 54 47 37 32 31 31 39 29 19 46 40 11 10 12 14 22 31 32 31 33 34 33 31 32 32 35 42 46 46 46 45 42 35 33 46 53 55 50 41 36 30 26 26 26 29 35 38 39 38 41 49 56 53 42 36 42
22 22 23 26 28 27 51 85 101 98 78 70 80 83 84 78 64 66 70 65 80 94 100 98 82 86 100 102 100 101 88 74 88 105 102 92 80 70 71 70 61 57 49 39 32 29 30 38 29 23 48 34 8 12 12 17 27 32 30 30 32 31 31 30 32 34 43 50 48 46 47 42 35 31 38 54 59 53 41 34 33 28 26 24 27 43 59 58 49 42 36 34 39 48 52 45 40
20 20 21 24 28 29 37 66 99 86 59 70 81 79 71 62 58 64 66 70 92 97 98 101 82 79 85 83 85 81 65 64 91 105 98 89 78 72 78 71 62 57 49 41 31 28 28 36 28 26 49 27 7 13 12 20 29 31 28 30 30 29 29 30 34 39 49 52 45 42 42 37 32 34 44 55 53 45 37 33 29 27 25 24 44 71 81 67 47 36 32 30 28 33 44 53 49
16 18 18 22 36 46 43 56 87 72 53 73 84 86 77 72 81 88 79 64 75 82 80 81 72 69 66 62 62 61 58 61 81 98 97 85 71 72 76 65 62 60 52 43 32 28 27 34 26 31 47 20 8 13 13 24 30 29 28 30 28 28 30 33 39 47 53 50 43 40 43 41 35 39 47 47 43 41 37 31 25 27 23 28 63 88 89 76 58 36 25 27 29 28 29 43 54
14 16 16 18 31 48 55 56 66 55 44 54 60 79 88 83 84 88 79 53 48 60 65 71 79 85 85 81 75 78 84 85 94 102 93 77 64 66 66 60 65 66 56 44 34 28 24 31 26 37 44 15 9 13 17 28 31 28 28 30 27 29 31 38 47 58 62 55 49 42 44 46 39 40 43 43 42 38 32 26 22 26 22 31 69 92 94 89 79 52 27 25 29 31 26 30 44
15 16 15 15 20 29 42 45 45 41 38 43 44 66 90 82 67 66 72 68 62 58 61 76 89 93 97 95 89 94 100 101 107 102 85 70 58 54 54 58 70 70 58 42 33 25 24 32 27 43 40 10 11 14 22 31 30 28 28 30 27 30 33 42 56 69 72 65 61 46 40 45 40 37 40 42 38 30 25 23 22 25 20 26 59 88 93 92 92 73 44 33 28 29 29 29 37
15 16 16 15 18 24 33 34 33 35 38 45 46 57 77 73 62 69 83 89 88 80 69 75 87 91 94 91 86 90 96 102 104 95 80 64 51 47 48 61 73 68 55 38 29 23 28 33 30 46 34 8 13 16 26 33 30 28 29 30 27 30 33 44 62 74 77 71 68 51 38 39 36 34 38 35 27 22 20 20 21 24 21 20 41 69 78 81 87 82 67 58 51 41 35 31 34
15 16 17 17 18 23 28 26 24 27 29 36 44 54 68 71 71 85 97 97 101 100 86 85 91 90 93 93 82 77 89 102 101 94 79 57 44 41 50 67 71 63 49 34 27 25 35 35 34 47 27 7 14 19 29 33 30 28 29 29 27 30 32 45 64 72 73 75 69 50 36 31 28 28 30 26 20 19 18 17 19 20 20 17 27 47 54 62 73 79 78 77 80 75 60 45 37
16 16 17 19 19 21 22 21 19 20 21 23 31 49 68 74 75 85 98 102 95 85 82 80 76 80 95 94 73 69 88 101 102 95 74 49 35 39 57 67 63 57 42 29 27 32 42 35 40 46 19 8 15 21 32 33 30 28 28 29 27 28 32 43 60 65 65 75 66 42 29 24 26 25 25 24 20 19 17 17 17 17 18 17 25 38 42 52 60 62 68 71 76 79 75 67 56
15 16 18 19 19 20 20 19 19 18 17 17 21 35 54 66 68 70 88 106 93 84 87 73 69 87 100 96 81 81 93 101 100 88 66 42 30 42 57 55 50 48 33 24 28 41 46 37 48 41 12 10 15 24 33 33 31 27 28 28 27 27 32 38 52 57 59 73 59 32 22 21 26 24 27 30 23 20 18 16 17 17 17 18 24 33 43 59 56 38 41 53 59 58 59 63 63
16 16 17 18 18 19 19 17 19 18 16 17 18 23 35 48 54 56 71 98 97 95 98 83 86 99 102 103 94 88 92 95 89 75 57 33 30 45 47 41 42 39 22 21 40 54 46 41 53 33 9 12 16 27 33 33 31 27 28 26 25 26 28 33 47 53 56 65 48 29 22 21 26 24 31 35 27 23 20 17 17 17 17 17 20 25 36 51 45 26 27 43 55 52 45 49 52
15 16 17 17 17 18 18 18 17 18 16 16 17 18 25 29 37 40 48 82 103 102 100 94 94 96 97 93 85 88 88 76 69 60 41 27 37 45 38 36 38 31 17 30 60 61 42 45 53 26 9 13 18 30 33 34 30 25 28 24 24 24 25 33 45 49 50 52 38 29 23 21 24 24 31 32 27 25 20 18 16 17 18 18 18 20 25 31 29 25 29 36 48 52 48 48 47
15 15 16 15 16 17 17 18 17 17 16 16 16 15 17 18 26 32 37 71 102 100 91 82 79 80 73 68 82 97 88 69 59 46 29 31 43 39 34 37 36 29 26 49 71 54 36 49 48 20 9 13 21 31 33 35 28 24 28 24 23 23 26 36 43 42 41 39 33 29 22 20 22 24 28 26 23 23 20 19 19 19 17 18 19 18 20 23 24 25 27 29 39 50 54 55 53
15 14 15 14 14 15 15 16 16 16 15 15 15 15 16 15 19 23 32 62 94 97 79 68 71 68 56 66 93 97 86 75 55 35 28 37 38 32 35 38 33 27 34 59 70 46 35 50 40 15 9 14 23 32 34 34 25 24 27 24 23 25 31 37 38 35 32 31 29 25 19 18 22 26 27 22 20 22 21 25 34 31 23 21 20 19 19 19 21 23 23 26 35 41 43 47 50
15 15 15 15 14 14 14 14 15 15 15 15 15 15 16 15 17 17 21 40 70 76 59 64 72 61 66 87 102 98 91 78 50 30 31 35 30 29 36 36 25 21 33 53 64 45 37 48 30 10 10 16 26 33 35 33 23 23 27 24 24 27 31 34 32 28 26 27 26 21 19 21 24 26 25 20 20 22 24 38 49 41 32 27 22 20 18 18 18 19 19 21 24 25 25 26 29
16 16 15 16 15 15 14 14 14 14 14 15 15 15 15 15 16 16 16 20 36 43 40 64 73 64 88 102 97 97 93 77 46 28 31 31 25 28 35 30 17 19 33 47 58 45 39 44 21 8 12 18 30 34 36 30 20 23 27 25 24 26 29 30 26 21 24 28 25 22 22 23 24 24 23 21 23 23 31 53 51 39 44 34 26 25 19 20 19 18 18 18 19 19 19 19 20
16 16 16 17 16 16 16 15 14 14 13 13 14 15 16 16 16 16 17 16 20 26 28 50 60 54 75 87 87 91 86 67 37 27 33 26 22 29 31 23 15 21 34 48 54 41 42 39 14 8 13 22 32 34 36 25 18 24 26 25 24 25 28 27 22 19 25 30 26 24 25 26 26 26 25 25 27 29 44 61 44 41 58 39 27 30 24 26 26 27 24 22 25 23 24 27 29
17 16 16 16 16 16 16 16 15 15 14 13 13 13 15 15 16 16 17 17 17 21 20 30 41 36 48 69 82 83 69 45 26 29 29 20 25 30 25 19 18 24 35 51 48 37 44 31 9 10 15 25 33 35 33 21 18 24 26 26 23 26 26 23 21 22 27 30 27 26 29 29 29 27 27 28 28 36 58 67 42 39 53 35 27 31 28 31 32 37 36 29 30 30 30 31 33
17 16 16 16 16 16 15 16 16 16 15 14 13 12 13 13 15 16 16 17 16 18 18 21 28 27 35 51 58 53 39 25 27 32 24 20 27 23 20 25 30 33 43 52 40 36 43 23 8 11 17 28 33 35 29 17 20 23 26 25 23 26 23 21 23 25 27 28 27 28 31 31 29 27 27 29 27 38 61 66 45 33 35 30 29 30 30 33 32 39 41 36 35 35 35 33 32
16 16 16 16 16 17 16 16 16 16 16 15 15 12 12 11 13 15 15 16 17 18 18 18 22 23 27 31 33 30 23 26 34 31 22 21 21 15 25 46 52 48 52 49 36 40 40 17 8 13 20 30 34 33 23 17 20 21 26 25 24 25 21 24 25 26 28 28 29 30 32 31 29 27 25 27 26 32 44 47 39 30 29 30 31 31 32 34 35 37 39 40 40 40 41 40 39
15 16 16 16 17 17 16 16 17 16 16 15 14 13 11 11 11 14 16 16 16 17 18 18 19 20 22 24 27 24 24 34 35 27 24 23 18 16 35 64 67 61 60 46 36 44 33 12 9 14 23 32 35 30 19 18 20 20 25 25 25 23 22 27 27 28 29 28 30 30 32 31 27 26 25 25 26 27 29 31 31 30 31 31 31 33 34 36 38 38 40 41 41 43 43 45 48
14 14 15 15 15 15 15 15 15 15 15 14 13 12 10 10 10 12 15 14 14 16 17 17 18 19 20 21 22 23 31 36 26 23 28 24 17 22 45 64 62 63 59 41 41 44 23 9 11 16 26 34 34 26 18 19 18 20 25 25 24 22 26 30 29 32 31 29 30 30 32 30 26 25 26 26 27 28 28 29 30 30 31 32 33 34 35 37 38 39 41 42 43 45 44 45 47
11 12 12 13 13 13 13 13 13 13 12 12 11 10 9 9 10 11 13 13 13 14 15 16 17 18 17 17 21 30 35 26 17 21 25 20 19 33 51 56 55 60 51 40 48 39 15 9 12 19 29 34 31 22 18 19 17 20 24 25 24 24 29 31 31 35 34 30 30 32 31 28 26 25 26 27 28 28 29 29 30 31 32 32 34 35 36 37 38 40 41 42 44 45 47 47 46
7 8 9 9 10 10 10 10 10 9 9 9 8 7 8 9 9 11 11 12 12 13 14 14 16 16 15 18 29 36 29 17 15 18 18 19 26 39 49 48 50 50 43 47 51 31 12 10 14 23 33 34 27 19 19 18 16 20 24 24 24 26 30 30 31 37 38 33 31 31 29 26 26 26 27 27 28 29 29 30 30 31 32 33 34 35 36 37 38 39 41 42 44 45 47 48 49
6 6 7 7 7 7 7 7 7 7 7 7 7 8 8 9 9 10 10 11 11 12 13 14 15 14 17 29 41 38 23 13 14 13 15 23 31 39 41 39 39 39 46 56 47 23 10 10 17 26 34 34 24 18 19 16 16 20 22 23 26 28 30 30 31 38 40 35 33 30 26 26 25 26 27 28 28 28 29 30 31 32 33 34 35 35 36 37 39 39 41 42 43 45 46 47 49
8 8 7 7 6 6 6 6 7 7 7 7 8 8 8 9 9 10 10 10 11 11 13 13 13 16 31 49 51 36 18 11 11 10 17 27 34 37 35 31 30 38 55 58 36 16 10 12 20 27 33 31 21 18 17 15 16 19 21 24 27 29 30 31 33 39 39 35 33 28 25 26 26 27 27 27 28 29 30 31 32 33 33 34 35 36 37 37 38 39 40 42 43 44 45 47 47
11 10 10 9 8 7 7 7 7 7 7 7 7 7 8 8 8 9 10 10 10 11 12 12 16 35 57 64 53 30 13 10 8 10 22 31 35 34 28 25 29 46 62 51 25 12 10 14 22 30 33 27 20 18 15 14 16 18 22 25 28 31 31 32 35 38 36 33 32 27 25 27 26 27 27 27 29 29 31 31 33 34 34 35 35 36 37 37 38 39 40 41 43 44 45 47 47
12 11 12 11 11 10 9 8 8 8 8 8 8 8 7 7 8 8 8 10 11 12 13 21 40 66 77 67 49 26 11 10 8 16 30 33 33 30 22 22 35 56 62 40 18 11 11 15 24 32 32 24 19 17 15 14 15 19 24 26 29 32 31 32 34 35 34 32 31 27 26 27 27 27 27 28 29 30 31 32 34 35 36 36 36 37 37 38 39 39 41 42 43 44 45 46 47
13 12 13 12 12 11 11 10 10 11 12 11 11 9 9 10 9 8 11 13 13 15 26 50 75 87 79 62 44 22 11 9 10 23 32 30 33 28 18 26 46 63 56 28 14 12 12 17 26 32 29 22 18 16 15 14 16 21 24 26 29 32 32 32 33 34 33 31 29 28 27 27 27 28 28 28 30 31 32 33 35 37 39 40 41 41 41 41 41 40 42 42 43 44 45 46 46
15 14 13 13 12 11 11 11 11 13 14 14 14 14 15 13 12 14 16 18 24 36 58 84 93 85 71 54 35 17 11 9 13 27 29 28 34 26 20 34 55 63 45 19 14 15 13 18 28 31 26 20 18 15 15 15 18 23 24 26 29 31 33 33 33 33 33 31 30 29 28 27 28 28 28 29 30 31 33 35 37 41 44 47 49 49 50 50 48 47 47 46 46 45 45 46 46
17 17 16 15 13 12 12 11 11 13 13 13 14 17 17 17 19 20 22 36 58 74 90 99 90 75 61 42 24 13 11 9 15 25 24 29 34 26 25 40 57 57 32 12 13 15 13 20 30 29 22 19 18 15 15 16 19 23 25 26 29 31 33 34 33 33 33 32 30 29 29 28 28 29 29 30 30 32 34 36 40 45 48 51 53 54 55 56 56 56 54 52 49 48 47 46 47
16 18 18 16 14 14 14 11 11 12 12 11 12 17 18 20 21 22 38 66 90 99 101 96 80 64 46 27 15 12 11 10 15 21 21 30 35 28 28 39 51 43 21 9 12 13 12 22 30 25 20 19 17 16 15 17 21 23 25 27 29 31 33 34 34 33 32 31 30 29 30 29 29 29 29 30 31 34 37 40 44 47 47 46 48 50 51 53 55 56 54 50 46 46 47 47 47
15 16 16 16 15 16 15 13 12 12 12 11 11 15 16 21 26 39 68 91 101 103 100 88 67 45 25 15 13 11 10 10 15 19 20 30 35 31 32 37 40 27 13 9 11 13 14 23 30 21 18 19 16 16 15 17 22 23 25 28 29 30 33 34 33 32 31 30 30 30 29 29 29 29 30 32 35 38 39 41 42 41 39 36 36 39 42 45 47 49 49 44 41 40 42 45 46
15 14 13 13 14 15 15 14 13 12 12 11 12 11 14 26 36 55 85 99 103 102 91 72 45 23 14 12 13 11 10 11 16 18 18 30 35 31 32 31 26 16 10 10 10 11 14 24 29 18 17 19 15 15 15 17 22 23 26 28 29 30 32 33 32 32 31 31 31 30 29 29 29 31 33 35 37 39 39 36 34 32 30 28 28 29 31 35 39 42 45 44 42 39 39 41 43
12 11 10 11 12 14 14 13 13 13 11 11 13 11 16 29 39 60 85 95 96 85 65 45 23 13 13 12 12 11 11 11 16 17 17 29 34 28 28 23 16 12 10 10 10 10 12 24 27 16 17 19 15 15 15 18 22 23 25 27 30 30 30 33 32 32 32 32 32 31 30 30 32 35 35 37 38 37 36 32 28 27 26 25 24 25 26 27 29 32 37 42 43 42 41 42 43
10 11 10 10 11 12 13 13 13 13 12 12 13 12 16 24 37 60 78 78 70 52 33 21 13 14 14 11 12 11 11 10 14 17 16 27 35 27 23 18 11 12 14 10 10 10 11 24 27 16 16 18 15 15 15 19 22 23 24 25 29 30 30 31 32 33 33 32 33 32 33 33 35 37 37 37 37 35 33 29 26 25 24 25 23 22 22 22 23 23 27 32 37 39 39 39 41
10 11 11 11 11 12 13 13 13 13 13 13 12 13 15 18 26 39 47 44 36 24 17 15 14 15 13 12 12 11 12 11 11 17 16 23 34 29 20 18 12 11 17 11 8 11 9 22 30 17 15 18 15 15 15 18 23 23 24 24 27 30 30 31 32 32 32 33 34 33 35 36 36 37 36 35 34 31 29 27 25 25 24 24 22 21 20 20 21 21 21 23 27 28 29 28 29
11 11 11 12 11 11 11 13 13 14 15 14 12 13 14 14 15 18 21 20 16 13 14 15 13 13 13 12 12 11 13 12 10 16 18 19 30 33 20 15 14 11 18 15 8 10 9 20 32 20 14 18 15 14 15 17 22 24 25 24 26 29 30 33 35 33 32 31 32 34 35 35 36 35 33 31 30 28 28 27 26 26 25 23 21 20 20 21 21 22 21 21 21 21 21 22 22
11 11 11 12 12 11 10 12 13 14 15 13 12 13 12 12 13 14 14 13 12 13 13 14 13 12 12 12 13 13 13 13 11 13 19 18 23 35 26 15 14 12 17 19 10 9 8 18 32 23 13 17 15 13 15 16 20 23 25 26 29 31 29 34 40 40 38 34 30 31 31 31 31 30 30 28 28 29 28 28 28 30 30 23 19 19 20 21 22 22 23 22 21 21 21 20 21
10 11 11 12 12 11 10 11 12 13 14 13 12 12 12 11 11 12 13 12 12 13 13 13 12 11 12 13 13 14 13 14 12 11 17 18 17 29 32 19 14 13 17 21 14 9 7 15 32 27 14 17 17 13 14 16 18 21 24 28 32 32 29 33 43 44 44 42 36 31 28 29 29 28 29 28 29 30 27 28 31 36 38 27 17 19 20 21 22 22 23 23 22 22 22 21 21
10 11 11 12 11 11 10 9 10 12 13 12 12 12 12 11 11 11 11 11 12 12 12 12 11 11 12 13 14 14 14 13 13 12 14 18 15 21 33 28 16 13 17 22 18 11 7 12 29 31 17 16 18 15 14 14 16 20 24 31 35 34 33 36 42 44 44 46 44 38 33 33 33 31 32 32 30 30 27 29 33 40 44 32 19 18 21 21 21 22 21 21 22 21 21 21 21
10 10 11 12 11 10 9 8 8 11 12 12 11 12 12 12 11 11 10 11 11 12 12 10 10 12 12 13 15 14 14 13 13 13 11 15 15 14 28 35 24 14 15 23 22 13 9 10 23 32 22 15 18 16 14 14 15 18 23 29 30 29 33 38 40 42 43 44 44 41 39 37 35 33 35 34 31 28 27 28 32 39 45 39 25 18 20 22 21 21 21 20 19 20 21 22 25
10 11 11 11 10 10 9 8 8 9 12 12 11 12 12 12 12 11 10 11 11 11 12 11 11 12 12 13 15 14 15 14 13 14 12 13 15 12 20 33 33 20 12 21 25 16 10 8 15 30 26 16 18 17 14 14 15 16 19 22 23 21 26 36 40 39 40 40 40 39 39 39 36 35 37 37 33 30 27 27 31 37 44 43 33 23 20 21 21 21 20 20 19 21 25 30 35
11 12 11 10 10 10 9 8 8 9 11 11 11 11 12 12 13 12 12 11 12 13 13 12 11 12 12 12 14 14 14 14 13 13 13 12 14 14 13 23 36 33 16 16 26 22 13 8 10 24 28 19 17 19 16 14 14 16 16 17 19 18 20 29 35 36 37 36 37 37 37 40 38 36 39 40 36 31 28 27 29 33 41 45 40 33 26 21 21 21 20 20 21 23 30 39 45
12 12 11 10 10 9 9 8 8 9 10 10 10 11 12 13 13 12 12 12 13 15 14 13 12 12 12 12 12 13 13 14 13 12 13 13 14 15 13 15 28 40 30 16 22 27 19 11 9 18 27 22 17 19 18 15 14 14 16 16 17 19 21 23 26 28 29 30 33 33 31 35 37 36 38 39 35 30 28 28 28 29 38 45 43 39 36 31 26 25 24 23 22 25 33 43 51
12 11 10 10 9 9 8 8 8 8 9 10 10 11 12 14 14 12 13 14 14 15 13 12 12 12 12 12 11 12 13 13 13 12 13 14 14 15 15 13 17 35 43 28 19 24 24 15 9 13 23 24 18 18 19 17 14 13 14 16 16 19 23 25 26 25 23 23 25 26 24 27 31 31 32 33 31 28 26 27 27 26 32 42 45 40 37 38 34 32 33 29 26 29 35 45 55
11 10 10 10 9 8 8 7 8 8 8 10 10 11 13 14 14 14 15 16 14 13 12 12 13 13 12 12 11 12 12 12 13 13 13 14 16 15 15 15 13 22 42 45 27 20 24 21 12 9 19 26 20 17 19 18 16 14 14 15 16 17 22 27 27 27 26 24 21 21 22 23 25 26 27 28 29 28 25 24 24 25 25 33 44 43 36 36 39 41 44 41 37 37 40 49 57
10 9 9 9 8 8 7 7 7 6 9 12 11 11 13 14 15 16 17 15 13 13 13 13 13 13 12 12 12 12 12 12 13 13 13 14 16 17 15 16 15 14 27 46 43 27 21 23 18 9 13 26 24 17 18 18 18 17 14 15 16 16 21 26 26 25 28 28 24 23 22 23 24 24 25 25 26 26 25 24 23 24 24 25 35 44 39 34 39 45 50 52 51 47 45 53 58
10 9 9 9 8 8 7 7 7 8 12 15 12 10 12 16 17 18 17 15 13 13 13 13 12 12 12 12 12 12 12 12 13 13 13 14 15 17 17 16 17 15 15 31 46 42 28 22 22 14 9 20 27 21 17 17 18 19 16 16 16 16 20 26 27 25 26 27 26 24 22 23 23 23 24 24 24 25 24 25 24 24 25 24 27 38 40 35 37 43 45 48 53 52 50 56 58
10 9 9 9 8 8 7 8 8 9 13 15 12 9 12 19 20 18 19 17 13 12 11 11 12 12 12 12 12 13 12 12 13 14 13 14 16 17 17 17 17 17 15 17 31 45 43 29 23 20 11 13 25 26 19 16 18 19 19 18 17 15 18 23 27 26 26 26 26 25 24 24 24 25 25 24 24 24 24 24 25 24 25 25 25 31 35 33 35 40 39 37 42 47 51 57 59
12 11 11 10 10 10 8 9 9 9 15 17 13 8 12 21 21 17 20 18 13 11 10 10 11 11 12 13 13 13 14 13 13 14 14 14 16 17 17 18 17 17 18 15 18 34 48 43 30 23 16 11 18 24 23 18 17 19 21 19 18 17 16 19 24 25 26 26 26 28 28 28 29 28 27 26 24 25 24 24 25 25 24 24 24 25 27 28 32 38 39 36 35 39 47 56 60
13 12 11 9 10 11 8 9 9 10 15 17 12 8 13 25 25 17 17 17 13 12 10 10 11 11 12 13 14 14 15 15 14 14 14 14 16 18 17 18 18 17 18 17 16 22 38 48 42 30 20 13 12 17 23 22 17 18 21 21 19 18 18 19 21 22 23 23 25 28 31 33 33 30 28 27 26 26 25 24 24 25 24 23 23 23 24 26 29 34 38 37 35 35 43 53 60
14 13 12 11 12 11 9 8 9 10 14 14 11 8 14 26 26 15 14 16 14 13 11 11 12 11 12 13 14 15 14 15 15 14 14 14 16 17 18 18 17 17 18 18 17 17 24 39 48 43 29 17 12 11 19 25 23 18 19 22 21 19 19 19 20 21 22 21 23 26 31 34 34 32 29 27 28 27 26 26 25 24 23 22 22 21 22 23 25 28 31 31 31 32 38 48 58
15 14 14 15 15 13 10 9 9 9 12 14 11 8 13 22 22 14 13 15 14 13 13 12 12 11 13 14 14 15 15 15 15 14 14 14 16 17 18 19 17 17 18 17 17 17 18 27 42 52 43 26 16 11 12 22 27 23 19 20 22 21 19 20 21 22 22 22 22 24 29 33 34 31 28 28 29 28 27 27 25 24 23 21 20 20 21 21 21 22 23 22 24 28 35 45 54
15 16 16 15 15 15 13 11 10 10 12 14 12 10 12 20 24 18 15 16 15 13 13 12 12 13 13 14 14 14 15 15 15 15 15 15 16 16 17 18 17 16 17 17 17 17 17 19 30 48 53 39 24 13 9 13 23 27 24 19 20 21 20 20 21 23 22 21 22 23 26 30 31 29 28 28 28 28 27 26 24 23 22 20 21 20 20 21 22 22 22 22 24 28 37 45 50
18 17 15 14 15 16 14 12 12 11 14 18 16 12 13 22 30 25 18 18 16 14 13 12 13 13 13 13 13 14 15 16 16 15 15 15 15 15 16 17 16 16 16 17 17 16 16 17 21 35 50 50 34 18 11 11 16 27 30 23 19 19 19 19 21 22 22 21 21 22 24 26 27 27 27 26 27 27 26 25 24 23 21 21 21 21 22 24 25 25 26 28 30 33 39 43 47
25 20 16 15 15 16 14 12 11 10 13 18 16 13 14 24 34 32 23 19 18 15 13 13 13 13 13 13 13 14 15 16 16 15 14 14 14 14 15 16 15 16 17 17 17 17 16 17 20 28 44 57 47 24 14 12 12 22 33 31 24 19 18 18 20 21 21 20 21 22 23 23 23 23 24 24 24 24 24 25 24 22 22 22 22 23 24 25 25 26 27 30 33 37 40 43 48
28 24 22 20 19 18 15 13 13 11 12 15 14 13 16 23 32 34 26 20 19 16 13 13 13 13 13 13 14 15 15 15 15 15 14 14 14 15 16 16 16 16 16 16 16 16 17 17 20 27 43 64 65 41 20 14 12 14 25 33 32 26 20 17 18 20 21 21 22 22 21 21 20 21 22 22 22 22 23 24 22 22 23 23 23 23 23 23 24 25 26 29 32 36 41 46 51
Wind_Speed
11 8 7 7 6 5 4 3 2 2 3 3 5 6 5 5 5 3 4 6 10 12 12 13 13 13 14 16 19 20 24 29 31 31 32 33 35 37 38 39 39 39 39 37 33 30 28 26 26 24 22 25 23 17 14 12 12 13 16 17 16 15 15 15 14 14 15 16 16 16 16 17 18 18 16 14 14 15 16 16 15 15 15 15 14 13 13 11 9 6 3 4 7 8 9 9 9
11 9 8 7 7 7 6 5 4 5 5 3 3 4 6 7 7 5 4 6 10 12 12 13 13 13 15 18 21 23 26 29 29 30 32 34 35 38 39 40 40 40 40 36 32 30 27 26 25 22 21 24 20 15 12 11 12 14 16 15 14 14 14 14 14 14 15 17 17 16 16 17 17 16 15 15 15 16 16 16 16 16 16 17 17 17 17 16 13 9 5 3 6 9 10 10 10
11 9 8 8 8 8 8 7 6 6 5 4 4 5 6 7 7 6 6 4 5 10 11 13 14 13 16 19 22 25 27 28 29 31 33 34 36 38 39 41 41 41 39 35 31 30 27 25 25 21 20 22 18 13 11 11 12 14 15 14 13 14 14 14 15 15 16 18 18 16 17 17 18 17 15 15 15 16 16 16 16 17 18 18 19 20 19 19 17 14 10 4 2 7 10 11 10
10 9 9 9 9 9 8 7 7 5 4 4 5 7 8 7 7 7 9 8 7 11 13 14 15 17 19 21 23 25 27 29 30 32 33 34 37 39 40 42 43 41 38 33 31 29 27 25 24 20 20 21 16 12 11 11 13 15 15 13 13 14 14 15 16 17 18 20 19 17 17 18 18 16 16 16 16 17 17 18 18 19 19 19 19 20 20 21 21 19 16 10 5 6 8 9 10
10 10 10 10 10 10 9 7 8 8 7 6 7 8 9 7 7 8 10 11 11 12 13 14 16 19 21 22 23 25 28 29 30 31 32 34 38 41 42 43 42 40 36 32 30 28 26 25 22 18 20 19 14 12 11 11 13 15 14 12 13 14 15 16 16 18 20 20 19 18 17 18 18 17 17 17 17 18 18 19 20 20 20 19 19 20 20 21 23 24 22 18 15 13 11 9 8
11 12 12 11 11 11 10 10 10 11 10 9 9 10 10 9 10 10 10 11 12 13 14 14 16 19 20 21 23 25 27 28 29 30 32 36 41 43 44 43 41 38 34 31 30 27 25 24 20 17 19 17 13 11 10 12 14 15 13 12 13 14 15 16 17 19 21 21 20 19 17 17 18 17 17 17 18 19 19 20 21 21 21 20 19 19 20 20 23 26 26 24 21 18 14 10 8
14 14 14 13 13 13 12 12 12 12 11 10 11 10 10 11 11 11 11 12 14 16 16 15 16 18 20 22 24 25 27 28 30 31 34 39 43 44 44 42 39 36 33 31 29 26 23 21 17 16 18 15 11 10 10 11 14 15 13 12 13 14 15 15 17 20 22 22 21 20 19 18 18 17 17 18 18 19 20 21 21 22 22 21 19 19 20 19 21 24 25 26 24 21 17 12 10
17 17 16 16 16 15 14 14 13 13 13 12 12 12 12 13 13 13 14 15 17 18 18 17 18 20 23 24 25 26 28 30 31 32 36 41 44 45 44 41 37 34 31 30 27 24 21 19 15 15 17 13 10 10 9 11 14 15 13 11 12 13 14 14 16 21 22 22 21 21 19 18 17 17 17 18 19 20 21 21 22 22 22 22 21 20 20 20 20 21 23 23 23 22 18 15 12
20 19 19 19 19 18 17 16 16 15 14 13 13 13 13 14 15 15 16 17 18 18 17 17 19 22 23 24 25 27 29 31 32 34 39 42 45 46 43 39 35 32 30 28 25 22 19 16 13 15 15 11 9 9 9 11 14 14 12 11 11 12 13 13 16 21 22 22 21 20 19 18 17 16 17 18 20 20 20 21 22 22 22 23 23 21 20 21 21 21 21 21 21 20 18 17 15
23 22 21 21 21 20 19 18 18 18 16 15 14 14 14 14 15 16 18 18 17 17 17 18 20 22 23 24 25 26 29 32 34 36 40 44 46 45 41 36 33 30 28 25 24 21 18 13 11 14 13 9 9 9 9 11 13 13 12 11 10 11 11 12 16 20 21 21 20 20 19 18 17 16 16 18 20 20 21 21 22 23 23 23 24 22 20 21 21 21 20 20 20 20 19 18 17
26 24 24 24 23 22 21 20 20 20 19 17 16 16 16 16 16 17 17 19 18 17 18 19 22 24 25 27 28 28 30 32 34 37 41 45 46 43 38 33 30 28 24 22 22 20 16 11 10 13 12 8 8 8 8 11 13 12 11 10 10 10 10 12 16 19 21 20 19 19 19 19 17 16 16 17 19 20 22 23 23 23 23 23 24 23 22 21 21 21 21 20 20 22 22 21 20
29 27 27 26 25 24 23 22 22 22 21 20 19 18 18 18 19 19 19 19 19 19 20 22 25 27 28 30 32 32 31 32 34 37 43 46 44 39 34 30 27 25 21 20 20 18 14 9 10 12 10 8 8 8 8 11 12 11 10 10 10 9 10 12 16 19 20 18 18 18 19 19 17 17 17 19 20 21 22 23 24 23 23 23 23 24 24 23 23 23 22 21 21 22 22 22 22
31 30 29 28 27 27 25 25 24 24 23 22 22 21 20 20 20 20 20 20 20 19 21 24 27 28 29 31 33 32 30 30 33 39 45 45 40 35 30 26 24 22 19 18 18 17 12 8 9 11 9 8 8 8 8 10 10 10 10 10 10 11 11 13 16 19 18 17 17 18 19 18 18 18 19 20 21 21 22 23 24 24 23 23 23 24 24 24 24 25 24 24 23 22 22 22 22
34 32 31 30 29 29 27 27 26 25 25 24 24 24 23 22 21 21 21 21 21 22 24 26 26 26 27 30 30 28 27 30 36 43 46 43 37 31 26 24 22 20 18 17 17 16 11 7 9 10 8 8 9 8 8 10 9 9 10 11 11 12 12 14 17 18 17 17 17 18 19 18 18 18 19 20 21 22 22 23 23 23 24 25 24 24 25 25 26 26 27 27 26 24 24 23 23
36 35 34 33 32 31 29 28 28 28 27 26 26 26 26 25 24 23 22 22 23 25 26 25 24 24 25 26 28 28 29 34 41 46 45 41 35 29 24 22 22 20 18 16 16 14 9 7 9 9 8 9 9 9 8 9 9 10 11 11 12 12 13 15 17 17 17 17 18 18 19 19 18 19 20 21 21 22 22 23 23 24 25 26 27 27 27 27 28 28 29 29 29 27 27 26 26
39 37 36 35 34 33 32 30 30 30 29 28 28 28 28 28 27 26 25 24 25 26 26 25 24 26 26 27 30 33 36 39 44 45 43 38 32 27 23 22 22 21 18 16 15 13 8 6 9 9 9 9 10 9 8 9 9 10 11 11 12 13 15 17 18 17 17 17 18 19 19 19 19 20 21 22 22 23 23 24 25 27 28 30 32 33 32 32 32 33 33 32 32 31 29 29 28
41 40 39 38 37 36 34 33 32 31 31 30 30 30 30 31 31 30 28 27 27 26 26 26 26 27 28 29 32 35 39 41 43 43 41 35 30 25 23 23 22 20 18 15 13 11 6 6 9 9 9 10 10 9 8 9 9 11 12 12 13 14 17 18 18 17 17 18 18 19 20 20 20 21 22 23 23 24 25 25 27 30 30 33 37 38 39 40 40 41 42 41 40 38 36 35 33
43 43 42 40 40 38 37 36 35 33 33 32 32 32 32 33 33 32 32 30 29 28 28 27 27 28 29 30 33 36 39 40 41 40 37 32 28 25 24 24 22 20 17 13 12 9 5 7 9 10 10 11 11 9 9 9 10 11 12 13 14 16 18 18 17 17 17 18 19 19 20 21 22 23 24 25 26 27 28 28 33 36 35 38 42 44 46 47 48 47 48 50 50 48 47 45 43
45 45 44 43 42 41 39 38 37 36 35 35 35 34 34 35 35 35 34 33 32 31 29 29 29 29 29 31 34 37 38 39 38 36 33 29 26 25 25 24 22 18 15 12 10 6 4 7 10 10 10 11 10 9 10 10 10 11 13 13 14 17 18 18 18 18 18 18 19 20 21 22 24 26 28 30 31 32 32 32 38 44 44 46 49 50 51 52 53 52 50 52 53 52 51 51 50
45 45 45 44 43 42 41 40 39 38 37 37 37 37 37 37 37 37 36 35 34 33 32 31 31 30 31 32 35 37 37 36 34 32 29 26 25 26 25 23 20 17 13 11 8 4 5 8 10 10 11 12 10 9 10 11 11 11 13 13 15 17 19 19 20 19 19 19 20 21 22 24 27 30 33 36 38 40 40 40 43 48 50 51 52 52 53 53 53 53 51 52 52 52 51 51 51
45 45 45 44 44 43 42 41 41 40 39 39 40 39 39 38 38 38 38 37 36 35 34 33 32 32 32 33 35 35 34 33 32 30 27 25 26 27 24 21 19 16 12 9 5 4 7 9 10 11 12 12 10 10 11 12 11 12 13 14 16 18 19 20 20 20 19 21 22 22 24 27 31 35 38 41 44 46 47 48 48 49 50 50 50 50 49 49 49 49 49 49 50 51 50 50 51
45 45 45 45 44 43 42 42 42 41 41 41 41 41 40 39 38 38 38 38 37 36 35 34 33 32 33 34 34 33 31 30 30 27 25 26 27 26 23 21 19 15 10 5 3 6 8 10 11 12 12 12 10 11 12 12 11 12 14 15 17 18 20 21 20 20 21 22 23 24 26 29 33 38 41 43 46 47 48 48 48 48 47 46 45 45 44 44 44 45 45 46 47 48 48 48 48
45 46 46 45 45 44 44 44 44 43 43 43 42 41 40 39 38 38 38 38 37 36 34 34 32 32 33 33 32 28 28 28 27 25 24 25 26 24 23 21 18 13 7 2 5 8 10 11 12 13 13 11 11 11 13 12 12 13 15 16 18 19 20 21 20 21 22 23 23 25 27 30 35 39 41 43 45 46 45 45 45 44 43 42 41 40 40 40 40 41 42 42 43 44 46 46 46
43 44 45 45 45 45 45 45 44 44 43 42 41 39 38 37 37 37 37 37 35 34 33 32 31 31 32 30 26 25 26 26 25 24 24 24 24 24 23 20 15 10 2 5 8 9 11 12 13 14 13 11 11 12 13 13 14 15 16 18 20 21 21 21 21 21 22 23 24 25 28 32 36 39 41 43 43 43 42 41 41 40 40 39 38 37 37 37 37 38 38 39 40 41 42 43 43
37 38 39 41 42 42 42 42 41 41 40 39 38 37 36 35 35 36 36 35 33 32 30 30 30 29 27 23 22 22 24 24 23 23 23 23 24 24 22 17 11 5 4 8 9 11 12 13 13 14 14 11 11 12 13 14 16 16 18 20 22 22 22 21 20 21 22 23 24 25 29 32 35 38 40 41 40 40 39 38 37 37 36 36 35 35 34 34 34 35 35 35 36 38 39 40 41
29 31 33 35 36 37 37 37 37 37 37 36 36 35 35 34 34 34 33 31 30 29 28 27 27 24 20 19 20 21 22 23 23 22 22 23 24 23 20 14 6 3 8 10 10 12 13 14 13 13 13 12 11 12 13 15 18 18 20 22 23 23 22 22 21 21 22 23 24 26 29 32 34 37 38 38 38 37 36 35 35 34 33 33 33 32 32 31 31 32 32 32 33 34 35 37 38
21 23 25 27 30 31 32 33 34 34 34 34 34 34 34 33 32 31 29 28 27 26 25 24 21 17 16 17 19 20 21 22 22 21 21 22 23 21 17 9 2 8 11 11 11 13 14 14 14 13 13 12 12 12 14 17 19 20 22 24 24 24 23 23 22 23 24 24 25 27 29 31 32 35 35 35 35 35 34 33 32 32 31 30 30 30 29 29 29 29 29 29 29 30 32 34 35
18 18 18 20 22 24 26 27 28 28 29 30 31 32 31 30 28 27 25 24 23 22 21 18 15 13 15 17 18 19 20 20 20 20 20 22 22 19 13 4 7 11 12 11 12 14 15 14 13 14 13 11 12 13 15 19 21 23 24 25 24 24 24 23 23 24 25 25 25 27 29 29 31 33 33 33 33 32 31 30 30 30 29 28 27 27 26 26 26 26 26 26 26 27 28 30 32
18 17 16 17 17 18 19 20 20 20 22 24 26 26 25 24 24 23 21 20 19 18 15 12 12 13 15 16 17 18 19 19 19 18 20 21 20 17 10 5 10 12 12 12 13 14 16 14 13 14 13 12 12 13 16 20 22 24 25 25 24 24 24 23 23 23 25 24 25 26 27 27 29 30 31 31 30 29 28 28 28 28 27 26 26 25 24 24 24 23 23 24 24 24 25 27 29
19 19 18 18 18 17 17 17 16 15 16 18 18 19 19 20 20 18 16 15 14 13 11 10 12 14 15 16 17 17 18 18 17 17 18 19 18 15 7 8 11 12 12 13 13 14 16 14 13 14 13 12 13 14 18 21 23 25 26 25 24 24 24 23 22 23 24 24 24 24 25 25 26 28 28 28 27 26 25 25 25 26 26 26 26 25 24 24 23 22 22 22 23 23 23 24 26
21 21 20 20 20 18 17 17 15 14 14 14 13 14 16 16 15 14 13 12 11 11 10 12 14 15 16 16 16 16 16 16 15 15 17 17 16 13 7 9 11 11 12 13 13 14 16 15 13 14 13 13 14 16 19 22 24 26 27 25 24 24 23 22 22 22 23 24 23 23 23 23 24 25 25 25 24 23 23 23 24 24 25 26 27 27 27 26 26 24 23 22 22 22 21 21 22
24 24 23 24 23 19 18 19 17 15 14 13 12 13 13 12 13 13 11 11 11 11 12 14 15 15 15 15 14 14 15 14 13 14 16 15 13 10 7 9 11 11 11 13 13 13 15 14 14 14 14 14 15 17 20 22 25 27 28 26 24 23 23 22 21 21 22 23 23 23 22 22 22 22 22 22 21 20 21 21 23 23 24 25 26 28 29 29 30 29 27 25 24 23 22 21 21
27 28 29 28 26 21 20 21 19 17 16 14 13 13 11 11 12 12 11 11 12 13 15 16 16 15 14 14 13 13 13 13 12 13 14 13 10 8 7 9 10 10 11 12 13 13 14 14 13 14 14 14 16 18 21 23 25 28 28 26 24 23 22 22 21 21 21 22 23 22 21 21 20 20 20 19 18 19 20 21 22 22 22 23 24 25 27 28 30 31 31 30 29 27 26 24 23
33 34 34 32 29 24 22 23 20 20 20 15 13 13 10 10 11 11 12 13 14 15 17 17 16 14 13 13 12 12 12 12 11 11 13 11 8 6 6 7 9 9 10 11 12 13 13 13 13 14 15 14 16 19 22 24 26 27 27 26 24 23 22 21 21 20 20 20 21 21 20 20 19 19 18 17 17 18 19 20 20 20 21 21 22 23 24 26 27 28 29 30 30 30 29 28 27
40 38 38 34 30 26 26 25 22 23 22 17 15 14 12 12 12 11 13 14 15 17 18 17 14 13 13 12 10 11 11 11 10 10 12 11 7 3 3 5 7 9 9 9 11 12 12 12 12 14 15 15 16 19 22 23 25 26 27 25 23 22 21 21 21 20 19 19 19 19 19 18 18 17 16 16 16 17 17 18 18 19 19 19 20 21 23 24 25 26 27 28 28 29 29 29 29
43 40 39 35 31 28 28 27 24 23 23 20 18 16 14 14 13 13 15 16 17 18 17 16 13 12 13 11 9 9 10 10 9 9 10 10 7 2 1 3 7 8 8 8 10 12 13 11 10 12 14 16 17 19 21 22 24 25 26 25 23 21 21 20 20 20 19 18 18 17 17 16 16 16 15 14 15 15 16 16 16 17 17 18 19 20 21 22 23 24 25 26 26 27 27 28 28
45 42 41 38 35 31 30 29 26 24 25 24 21 19 17 16 16 16 18 18 19 18 15 14 13 11 12 11 8 8 9 9 8 8 8 9 7 3 1 3 6 8 8 8 9 12 14 12 10 11 13 16 18 20 21 22 23 24 25 25 23 21 21 20 19 19 19 18 17 16 15 15 15 14 14 13 14 14 14 14 15 15 16 17 18 19 20 21 22 23 24 25 25 25 26 26 26
48 45 44 42 40 37 34 32 30 27 28 29 25 21 21 20 18 18 19 20 19 16 14 14 13 11 11 10 8 7 7 8 7 7 7 8 7 4 1 3 5 7 7 8 9 12 14 13 11 11 13 15 18 20 22 23 23 24 25 25 23 21 21 21 19 18 18 18 17 16 15 15 14 13 13 12 12 12 13 13 13 14 15 16 17 18 19 21 22 22 23 25 25 25 25 26 26
49 47 47 46 45 43 39 36 34 31 31 33 28 24 25 24 20 20 21 20 18 16 15 15 13 12 11 9 8 7 6 7 6 6 6 7 7 5 1 3 6 7 6 6 8 11 14 15 12 11 12 14 17 20 22 24 24 25 25 25 23 22 22 21 20 18 17 17 16 15 14 14 13 12 11 11 10 11 11 12 12 13 14 14 15 17 18 20 21 22 23 24 25 25 25 25 26
51 50 49 49 50 48 45 41 38 35 35 36 31 27 29 27 22 22 23 21 19 18 17 17 15 12 11 9 8 8 7 6 6 5 5 6 7 5 3 3 6 8 7 6 8 10 12 15 14 11 11 13 16 19 22 24 24 25 25 24 22 22 22 21 20 18 17 16 15 14 13 12 11 10 9 8 8 9 9 10 11 12 13 13 14 16 17 18 19 20 21 22 22 23 24 24 25
54 53 52 54 55 53 51 46 41 38 39 39 34 30 32 30 25 25 25 22 20 20 20 19 15 13 12 10 9 9 8 7 6 5 5 6 6 6 4 3 6 8 9 7 8 10 11 14 15 13 12 13 15 19 21 23 24 25 25 24 22 20 20 20 19 17 16 15 15 14 13 11 9 8 7 6 6 7 8 9 10 11 12 12 13 14 16 17 18 18 19 20 20 21 22 22 23
57 55 56 58 59 57 54 49 44 41 41 42 38 33 33 32 30 30 27 23 22 22 22 20 16 14 13 11 10 11 10 8 7 6 5 5 6 6 4 4 6 8 10 9 8 10 12 15 16 15 14 14 14 18 21 23 24 25 24 23 21 20 19 19 18 17 15 15 14 14 12 10 9 8 6 5 5 5 6 7 8 8 10 11 12 13 14 15 16 16 17 18 19 20 20 21 21
59 59 61 62 61 59 57 52 47 44 44 45 41 36 35 34 33 33 28 23 23 23 23 21 17 16 15 13 12 12 12 10 8 8 6 5 6 6 5 4 5 8 10 10 9 10 13 16 17 16 16 15 14 17 20 23 24 25 25 24 23 21 20 20 19 17 15 14 14 13 12 10 9 8 6 5 4 4 4 5 5 6 8 10 11 12 12 13 14 14 15 16 17 18 19 19 20
62 64 63 62 63 61 59 55 50 47 47 47 42 37 36 35 35 36 30 26 24 23 24 22 19 19 17 15 15 14 14 13 10 9 7 6 7 7 7 5 6 8 10 11 10 9 12 15 16 17 18 17 16 16 19 23 25 25 26 24 23 21 20 20 20 19 17 15 14 12 10 9 9 7 6 5 4 3 3 2 3 4 7 9 11 11 11 12 13 13 14 15 16 16 17 18 18
68 67 63 63 65 63 61 58 52 50 49 47 42 39 38 37 38 39 34 29 27 26 27 26 23 22 20 18 17 16 15 14 13 11 9 7 7 8 8 7 7 8 10 12 12 10 11 14 16 17 18 19 18 17 18 22 25 26 25 24 22 21 20 19 18 18 17 16 15 13 10 9 9 8 6 6 5 3 2 1 1 3 5 7 10 11 10 11 11 12 13 14 14 15 16 16 18
71 69 65 66 67 64 63 58 54 51 48 46 44 42 40 39 40 39 37 33 31 31 31 30 27 25 23 21 19 17 17 16 15 13 11 9 8 9 10 9 8 9 11 13 13 13 12 14 16 18 18 19 20 19 18 20 23 25 25 24 24 22 20 18 17 17 17 16 15 13 11 10 9 8 7 6 5 4 2 1 0 1 3 5 7 9 10 10 10 11 12 13 13 14 15 16 17
74 71 68 68 67 66 63 59 56 51 45 45 47 44 42 42 40 39 40 39 36 34 33 31 28 26 25 23 21 20 19 18 16 15 13 12 10 11 12 11 10 9 11 13 14 15 14 14 16 18 19 19 21 21 20 20 21 23 24 25 24 23 20 18 17 17 17 16 15 14 12 11 10 9 8 8 7 5 4 3 2 1 2 3 4 7 8 9 9 10 11 11 12 13 14 15 16
75 72 69 68 67 66 63 59 55 47 42 46 49 46 43 43 41 41 43 44 40 36 35 33 31 29 27 25 24 22 21 19 18 17 16 14 12 13 13 13 12 11 12 13 15 16 16 15 15 17 20 22 22 22 22 20 19 20 23 25 24 23 21 18 17 17 17 17 16 15 13 12 11 10 9 9 8 7 6 5 4 3 3 3 3 4 6 7 8 9 9 10 10 11 12 13 14
75 72 70 68 67 65 61 57 52 44 41 46 49 46 42 42 44 44 45 45 42 40 39 36 34 32 29 27 26 24 22 21 19 19 19 16 14 15 15 14 14 13 13 14 16 17 18 17 15 16 20 23 24 23 23 20 19 20 22 24 24 24 22 20 18 18 17 17 16 15 14 13 12 11 11 10 9 8 7 6 6 5 4 4 4 4 5 6 6 7 8 8 9 9 10 11 12
74 72 70 67 65 64 59 56 52 46 44 48 50 47 41 41 46 46 46 46 45 44 42 39 37 34 31 29 27 25 23 22 20 21 21 19 17 17 16 16 16 15 15 16 17 18 19 19 17 16 19 23 25 24 23 22 20 20 21 23 24 24 23 21 20 18 17 17 16 15 15 14 14 13 12 11 10 9 9 8 7 6 6 6 6 6 6 5 5 6 7 8 8 8 9 9 10
76 74 72 69 66 63 60 58 55 50 49 50 51 47 40 42 49 50 49 49 47 46 44 41 38 35 33 30 27 25 24 23 23 23 23 21 19 19 18 17 17 17 17 18 18 19 20 21 21 18 19 23 26 25 24 24 22 21 21 22 23 23 23 22 20 20 19 18 17 17 16 16 15 14 13 12 11 10 10 9 8 8 7 7 7 7 7 7 6 6 7 8 9 9 9 9 9
78 77 75 70 65 64 64 63 59 55 55 54 50 45 41 46 54 54 51 50 47 47 44 40 38 36 34 30 28 27 26 25 25 25 25 23 22 22 20 19 19 19 19 20 20 21 21 21 22 21 20 23 27 27 25 25 24 23 22 22 23 23 23 23 22 21 20 19 18 17 17 17 17 15 14 13 12 12 11 11 10 9 8 8 8 8 8 8 7 8 9 10 10 10 9 9 9
79 78 73 67 66 69 69 66 63 60 57 54 51 48 46 51 56 54 51 50 48 47 44 41 39 38 35 32 30 30 29 27 26 27 26 25 24 24 22 21 21 21 21 21 22 22 22 22 22 23 22 23 27 28 27 26 25 24 24 24 24 24 23 22 22 22 21 20 19 19 19 19 18 16 16 15 14 14 13 12 11 10 9 8 8 8 8 8 9 9 10 12 12 12 11 11 10
83 79 72 70 73 74 70 67 65 60 55 53 52 50 49 53 57 54 51 51 50 47 44 42 42 39 36 34 33 32 30 29 28 28 27 26 25 25 24 24 24 23 23 23 24 24 24 23 23 24 25 25 27 29 28 28 27 26 26 26 26 25 24 23 22 22 22 22 21 20 20 20 19 18 18 17 16 15 14 13 13 11 10 9 8 8 8 9 10 11 12 13 14 13 13 12 11
84 79 76 77 78 73 68 66 62 57 54 54 53 51 49 51 54 54 51 51 51 49 46 44 43 40 38 37 36 33 31 30 29 29 29 28 28 28 27 27 27 26 25 25 26 25 25 25 24 24 26 26 26 27 29 29 28 28 27 27 27 27 25 24 24 24 24 24 23 22 21 21 21 20 19 19 18 17 15 14 13 12 11 10 9 9 9 10 11 12 13 14 14 14 14 13 12
84 81 81 81 78 73 69 67 63 59 57 55 54 52 49 49 53 54 51 52 52 49 47 45 44 42 41 40 37 35 33 32 32 32 31 30 31 30 29 30 29 28 27 27 27 27 26 26 25 25 26 27 28 28 30 31 29 28 28 28 29 28 28 26 25 26 26 25 24 23 23 23 22 22 21 20 19 18 16 15 14 13 12 11 10 9 10 10 11 12 13 14 15 15 14 14 14
86 84 82 80 76 73 72 69 66 64 60 57 57 55 50 50 56 56 53 53 52 50 48 46 45 44 43 41 39 37 36 35 34 34 33 32 32 32 31 31 31 30 28 29 29 29 27 27 27 26 26 28 30 31 32 32 31 30 29 30 30 30 29 28 27 27 27 26 26 25 25 25 24 23 22 21 20 19 17 16 15 14 12 12 11 10 10 11 12 13 14 15 15 15 15 15 15
90 87 83 80 78 76 75 70 66 63 59 58 58 56 52 54 59 58 56 55 53 51 50 48 46 46 44 42 41 39 38 37 35 35 34 34 33 33 33 32 32 32 31 31 31 31 30 29 28 28 27 29 31 33 33 33 33 32 31 31 31 31 30 29 28 28 29 28 28 27 27 26 25 24 23 22 21 19 18 17 16 14 13 13 12 11 11 12 13 14 15 15 16 16 16 17 17
Wind_Direction
230 226 226 219 215 207 214 230 210 262 254 230 232 222 224 231 241 275 311 326 334 331 325 316 318 326 319 311 309 304 307 317 322 326 330 331 333 337 339 340 340 340 341 342 343 344 345 347 348 351 359 1 1 5 9 16 27 31 26 22 28 40 48 51 46 40 31 23 20 18 19 18 17 19 25 33 35 35 33 30 29 30 31 33 32 27 22 17 8 351 307 243 217 204 193 184 181
230 229 232 224 217 213 219 221 198 229 251 261 243 219 229 237 240 247 285 322 334 329 320 305 306 318 310 302 301 301 307 314 318 323 327 329 331 335 337 337 338 339 339 340 342 344 345 347 348 352 0 3 4 9 15 25 35 33 28 31 43 54 58 54 47 39 28 20 19 19 19 19 20 24 32 38 36 35 34 32 31 33 36 36 35 34 33 27 21 12 344 279 224 206 198 193 188
231 232 236 229 224 225 226 230 225 233 253 264 239 234 258 269 272 267 261 272 307 298 287 287 298 305 298 295 295 299 306 312 315 318 322 326 331 335 335 336 337 337 337 339 341 344 346 347 349 354 2 5 6 12 22 33 39 35 33 43 56 64 62 53 46 35 23 19 20 22 23 23 27 32 40 41 37 36 37 36 34 37 37 37 38 40 39 34 31 26 17 2 225 190 187 191 192
232 233 234 232 232 236 235 239 244 251 268 263 247 253 270 285 288 277 263 250 244 256 263 281 298 300 296 295 296 300 307 310 310 313 318 325 332 334 334 335 336 336 336 337 339 343 346 347 349 355 4 7 9 17 27 38 40 36 41 54 65 67 60 52 43 30 23 22 23 24 25 27 31 36 43 43 41 39 38 37 37 39 39 38 42 45 45 41 39 38 37 44 75 135 156 172 184
230 233 233 233 238 245 246 248 253 266 276 275 276 273 270 263 257 257 259 261 260 263 273 287 297 297 297 297 299 304 308 308 308 311 317 326 333 334 333 334 335 335 335 336 338 342 345 347 350 357 7 8 11 21 32 40 39 39 47 62 69 67 59 51 39 29 27 26 25 24 26 29 33 38 43 43 43 42 40 40 40 41 41 42 45 49 50 48 47 48 51 61 79 100 120 140 161
224 234 237 236 240 247 251 253 257 267 274 276 279 280 272 257 253 259 262 268 271 273 279 285 290 293 294 297 303 308 309 309 309 313 321 329 332 332 332 333 335 335 335 336 338 341 344 347 351 0 10 10 16 27 38 41 37 40 51 65 70 67 59 49 36 30 28 25 23 23 27 31 35 40 43 46 45 46 45 44 45 44 44 44 48 52 53 53 53 56 61 67 78 90 102 116 128
223 231 239 243 244 244 248 252 256 263 269 272 274 276 270 262 268 279 281 279 277 278 281 283 287 289 292 297 302 306 309 310 310 314 323 330 331 331 332 332 333 334 335 337 339 342 345 349 353 5 13 13 21 34 43 40 37 42 52 64 68 64 57 47 33 28 25 22 21 24 29 32 37 42 46 50 51 51 49 48 47 47 46 46 49 53 54 55 58 61 65 69 75 82 91 102 110
229 231 237 243 246 246 247 251 255 259 263 268 272 275 270 267 275 282 282 279 278 280 282 283 286 290 293 296 302 308 311 311 311 317 325 330 331 331 331 330 331 333 335 338 341 344 347 351 356 10 16 18 29 43 48 40 38 43 53 63 65 61 55 43 29 24 21 19 21 25 31 34 41 48 52 54 55 54 51 50 49 49 48 47 50 53 54 56 60 63 66 69 72 77 83 91 98
233 235 239 242 246 248 250 253 256 260 263 266 271 274 271 270 275 280 280 277 277 282 285 288 292 295 295 300 308 313 313 312 313 320 327 330 331 330 330 329 329 331 335 339 344 348 350 353 1 15 20 24 38 52 52 42 41 45 54 64 65 60 52 39 26 21 17 17 21 27 31 36 44 52 55 56 56 55 52 51 51 51 49 49 52 54 55 57 60 63 66 69 72 75 78 84 88
236 238 242 244 248 251 253 257 260 263 267 268 268 270 271 272 274 279 281 279 279 285 292 295 296 294 295 302 310 312 311 311 314 321 326 328 328 328 328 328 329 331 335 341 347 350 351 355 8 20 24 32 49 62 56 45 44 47 57 66 66 59 49 35 24 19 16 17 22 28 32 38 44 51 57 56 56 55 53 51 51 51 50 51 54 56 58 58 57 59 64 68 70 72 73 78 80
238 240 244 246 249 252 255 258 262 265 269 271 271 269 269 271 272 277 282 280 278 282 287 289 291 294 298 304 306 307 308 310 316 322 324 325 325 326 327 327 329 333 337 344 349 350 352 0 17 25 30 42 60 71 61 48 48 50 60 69 67 58 44 32 24 18 16 19 25 30 34 39 43 49 56 56 56 55 53 52 51 51 51 51 54 56 58 59 58 59 63 66 67 69 69 71 73
239 241 245 247 249 252 254 258 262 265 269 273 273 272 272 273 275 279 284 283 279 281 284 286 291 298 303 306 306 305 305 310 316 320 324 325 325 325 325 328 332 337 342 349 353 351 354 7 26 30 36 54 71 80 64 52 52 56 65 70 66 56 41 33 25 18 17 23 29 32 35 39 43 49 55 57 57 57 55 53 52 52 52 52 53 55 58 60 59 61 63 63 65 68 68 69 70
241 242 245 247 249 251 253 256 260 263 267 270 272 273 274 276 278 281 284 282 279 279 285 291 294 298 303 306 307 305 306 311 316 322 326 327 326 325 325 330 336 342 348 356 357 353 358 17 34 37 45 66 82 85 67 55 57 62 70 70 65 55 44 35 24 19 23 31 35 36 38 41 46 51 56 58 59 60 59 57 56 55 55 54 54 56 58 60 60 61 61 61 63 65 66 67 67
242 243 246 248 249 251 253 255 258 261 264 267 271 273 274 276 277 278 280 279 275 277 286 292 294 298 303 307 308 307 311 315 321 327 329 327 325 324 326 331 337 343 351 359 357 354 2 28 42 44 58 78 91 90 69 57 60 69 73 72 65 55 46 36 27 26 34 41 42 42 43 46 51 55 57 59 62 64 64 62 60 57 56 56 56 57 59 60 61 61 61 62 63 63 62 62 62
243 244 246 248 250 252 254 255 257 259 261 264 268 271 274 275 276 277 277 276 273 276 285 290 295 298 300 304 307 308 312 317 324 328 327 325 324 324 326 331 336 342 352 359 355 355 6 38 50 54 71 89 98 94 72 58 66 75 75 73 66 54 46 38 34 39 47 49 48 48 48 51 56 58 60 62 66 68 69 68 64 60 57 57 58 58 59 61 62 61 62 63 64 63 61 61 61
243 244 246 249 251 252 254 256 257 259 261 262 264 268 272 274 275 276 276 276 276 279 284 288 294 297 294 298 304 307 310 316 323 325 324 324 323 324 327 330 334 342 352 358 354 356 12 49 59 65 84 97 102 97 74 63 73 79 77 73 65 55 48 44 46 51 55 54 52 52 53 57 60 61 65 68 72 74 75 74 69 68 65 62 64 63 63 65 65 65 65 65 66 65 64 64 63
244 245 247 248 250 252 254 256 258 259 261 262 263 265 268 272 274 276 277 277 278 281 285 288 293 298 295 296 301 305 308 313 319 322 322 323 323 325 327 329 333 340 351 357 355 358 22 62 67 77 95 105 107 98 74 71 82 82 80 75 66 56 52 53 57 58 57 56 55 56 59 63 65 67 72 75 78 80 81 80 74 75 74 69 70 71 71 72 71 71 70 71 71 70 70 70 69
245 246 248 249 251 252 254 256 257 259 261 263 264 265 266 269 271 274 276 278 279 282 286 289 293 297 296 296 300 303 306 311 317 320 321 322 324 324 326 327 330 337 349 356 356 3 42 73 75 88 103 110 111 96 78 81 90 87 83 77 66 59 58 61 62 61 59 59 60 64 67 70 72 73 77 80 84 87 87 84 78 80 81 78 78 78 78 78 77 76 74 74 74 73 73 74 74
244 246 248 249 251 253 254 256 257 259 261 263 265 266 267 268 269 271 274 277 279 282 285 288 292 295 296 297 300 302 306 312 317 318 320 322 324 325 325 327 329 337 348 356 359 13 70 82 83 99 109 114 112 94 84 92 95 92 88 79 68 64 65 67 66 67 66 65 68 73 76 78 80 81 85 87 90 93 93 89 85 85 87 85 84 83 82 81 80 78 76 74 74 73 73 73 74
244 246 248 249 251 253 254 256 258 259 260 262 264 265 267 268 269 270 272 275 278 282 285 287 290 294 296 298 300 303 308 313 315 316 318 320 323 325 326 329 333 340 349 356 4 37 91 89 92 107 115 117 110 92 91 99 100 97 93 83 73 71 72 72 73 74 72 73 77 82 84 86 89 91 93 94 94 95 96 94 91 89 88 87 86 84 83 82 80 78 76 74 73 73 73 73 72
245 247 248 249 250 252 253 254 256 258 259 261 264 265 267 268 268 269 271 274 276 279 282 285 288 292 296 297 300 305 310 313 313 314 315 318 323 326 327 330 333 339 348 356 17 86 102 94 100 115 120 120 108 93 99 104 103 102 97 87 79 78 79 79 79 80 79 81 85 89 92 94 96 98 98 98 97 97 96 95 93 90 88 86 85 83 81 79 77 74 72 72 71 71 72 72 73
246 247 248 249 250 252 253 254 255 256 258 260 262 264 266 266 266 266 268 271 274 276 280 283 286 291 293 296 301 307 311 312 313 312 312 317 324 327 328 328 328 334 345 0 73 113 107 100 109 121 125 122 108 100 107 109 107 106 100 92 86 86 85 84 86 87 86 87 91 94 98 100 102 102 101 100 99 98 95 94 91 88 86 84 82 80 77 75 73 70 69 69 68 67 69 70 71
246 247 249 250 251 253 254 256 257 258 259 260 262 263 264 264 265 265 267 269 272 275 278 281 285 289 291 295 302 308 310 311 312 311 312 318 325 327 328 326 325 331 342 45 124 121 109 105 116 125 126 120 109 109 115 113 111 108 103 97 94 92 90 89 93 93 90 92 96 100 103 105 105 104 103 101 99 97 93 91 89 86 83 81 78 75 73 71 69 68 66 65 64 64 65 67 68
245 247 250 251 252 253 255 257 258 260 261 262 262 262 263 263 264 265 266 269 272 275 278 281 284 286 290 297 304 308 309 311 312 312 315 320 325 327 328 326 325 331 357 132 132 121 110 111 122 129 127 118 110 116 120 116 113 110 106 103 100 98 95 95 99 99 95 96 99 104 107 108 108 106 103 100 97 94 91 87 85 83 80 77 74 71 69 68 67 66 64 62 61 61 61 63 65
243 246 248 250 251 252 253 254 256 257 258 259 259 260 260 261 262 263 266 269 272 274 277 279 282 285 291 298 303 306 308 309 310 313 318 322 325 327 329 329 327 337 126 138 130 119 112 116 128 132 127 118 114 122 123 118 114 112 111 109 106 102 100 101 104 104 101 100 103 107 111 112 111 107 103 100 95 92 88 85 82 79 77 73 70 69 67 66 66 64 63 61 59 58 58 59 61
241 243 245 247 249 249 250 251 252 253 254 255 256 256 257 258 259 262 266 268 271 273 275 277 280 285 291 296 300 304 306 307 309 314 320 324 327 329 333 333 335 103 134 136 126 118 114 120 133 133 124 118 119 125 124 119 116 116 116 113 109 106 105 105 107 108 107 105 107 111 114 115 112 107 103 99 93 90 86 81 77 75 73 70 68 67 65 64 64 63 62 60 58 57 56 56 57
237 239 242 244 246 248 249 249 250 251 252 253 254 254 255 256 258 261 264 266 267 269 271 274 279 284 288 293 298 302 304 306 310 317 323 327 330 335 340 344 74 127 135 133 123 117 116 126 136 131 121 118 123 126 123 120 119 120 120 117 113 110 109 108 108 110 110 109 110 114 117 116 113 108 103 98 92 88 84 79 74 72 70 68 66 65 64 63 62 61 60 59 57 55 54 54 55
236 234 238 240 242 244 246 247 248 249 251 252 253 253 254 255 256 257 259 261 263 264 266 271 276 280 284 290 295 300 302 306 313 321 327 331 336 344 351 23 123 131 134 127 120 118 120 131 138 129 120 120 125 126 124 122 122 124 124 120 116 114 113 111 111 112 112 111 112 117 119 117 113 109 103 97 91 86 81 77 73 70 68 66 65 64 64 63 62 60 57 56 55 54 53 52 53
239 235 235 236 237 239 241 243 244 245 246 247 249 251 252 251 251 251 253 255 257 259 262 265 270 274 281 287 294 299 302 308 318 325 330 335 344 353 9 95 128 132 130 122 118 119 123 134 137 126 121 124 127 127 126 124 126 129 127 124 120 117 116 115 115 115 114 113 114 118 120 117 113 109 103 97 91 85 79 75 71 68 66 64 62 61 61 60 60 58 55 53 52 52 51 50 51
238 238 236 236 235 235 238 239 239 240 241 243 246 247 246 244 244 245 244 246 249 252 253 256 264 271 278 286 292 298 303 311 321 327 334 342 351 2 33 114 129 131 126 119 118 122 127 137 136 125 124 129 129 130 129 128 131 132 130 127 123 121 119 119 119 119 117 116 116 119 120 118 113 110 105 97 90 82 76 72 70 69 68 67 65 63 61 59 58 57 55 53 51 51 51 50 51
233 238 236 238 237 234 238 240 239 239 241 243 241 240 241 240 240 237 231 229 232 239 243 251 261 269 277 285 292 298 305 314 324 331 340 350 359 11 54 117 127 128 123 116 118 126 133 139 137 127 128 132 133 134 132 132 134 134 133 130 125 123 122 122 123 123 121 119 119 120 121 119 115 111 105 96 87 78 73 71 72 73 73 72 71 70 68 66 63 61 59 57 55 54 53 52 52
229 234 233 237 238 234 237 242 240 240 241 242 237 235 237 234 232 226 215 212 216 228 241 251 261 268 276 285 293 301 307 315 326 336 346 356 5 20 64 114 122 124 120 115 117 127 137 141 137 130 131 136 137 137 135 135 137 136 135 132 127 125 125 127 127 127 126 123 120 120 120 119 116 111 105 96 85 78 74 74 75 76 75 75 74 74 73 71 69 66 65 65 64 62 60 58 56
231 234 233 234 236 230 233 241 241 240 237 236 236 234 231 225 224 216 202 206 213 227 242 251 260 269 277 285 295 305 310 316 329 341 351 1 11 31 71 109 118 120 118 116 120 130 140 143 139 133 135 139 141 141 139 139 140 139 138 136 131 128 128 130 132 132 130 126 122 121 121 120 117 112 106 96 88 83 81 80 79 78 76 74 73 73 73 72 71 69 68 68 68 68 68 67 65
232 232 232 231 231 228 228 235 237 241 240 233 233 234 227 217 217 211 203 210 219 229 242 252 261 270 277 285 297 307 311 318 331 345 355 4 15 39 81 111 118 121 118 117 124 134 144 149 144 138 138 141 145 144 143 143 143 142 142 139 135 132 132 133 134 134 132 128 125 124 124 123 119 113 107 100 94 91 89 86 83 79 77 73 71 71 71 71 71 71 70 69 69 69 69 70 70
234 232 233 231 229 228 230 233 233 239 244 236 231 232 224 219 217 215 214 218 226 234 244 254 261 268 277 285 297 307 314 319 330 345 357 5 14 39 89 123 129 126 120 121 130 137 145 151 150 144 141 144 148 148 146 145 146 147 146 143 139 138 137 135 134 134 133 130 127 127 127 124 120 114 108 104 101 98 94 89 84 80 76 72 70 70 70 70 70 70 70 70 70 69 68 68 69
238 236 238 236 232 229 232 237 234 238 244 238 232 231 225 223 221 221 225 228 233 239 245 255 260 266 275 284 295 307 314 319 327 341 356 4 9 28 105 145 145 137 126 124 136 143 146 153 157 151 146 147 151 151 150 149 148 150 151 148 144 143 143 140 136 135 134 132 131 131 129 126 122 117 112 109 105 99 94 88 83 77 73 70 68 69 69 69 69 68 69 69 69 68 67 67 67
241 240 241 240 236 230 229 234 234 234 240 239 234 230 225 222 220 222 229 234 236 241 247 253 257 261 270 279 290 302 311 317 324 333 351 2 4 14 139 177 166 153 137 128 141 150 148 155 164 159 153 151 155 155 152 152 152 153 154 152 149 148 149 147 142 139 136 134 134 133 131 128 125 121 118 114 107 100 92 86 81 75 71 69 68 68 68 68 67 66 66 66 66 65 65 65 64
240 241 241 241 239 233 228 229 231 229 234 239 234 228 226 222 219 221 228 234 238 241 244 247 250 255 263 273 283 296 305 312 318 325 342 357 1 2 207 198 185 173 156 138 148 158 154 157 169 170 163 158 160 162 158 156 157 156 156 155 155 154 156 155 151 146 142 139 138 136 135 132 129 126 123 117 109 100 92 84 78 74 71 70 70 70 69 68 68 67 66 66 66 65 64 64 63
237 239 240 241 240 236 230 226 227 226 230 237 234 229 231 227 219 221 228 235 239 239 239 242 244 248 256 264 275 285 293 300 307 318 331 346 355 352 300 213 198 185 173 150 151 166 164 159 171 181 174 164 165 168 164 160 160 161 160 159 158 158 160 161 158 154 149 147 146 143 142 140 137 132 127 120 110 99 90 82 77 73 69 69 71 71 71 71 69 68 67 66 66 65 63 62 61
234 235 237 238 239 238 233 227 225 226 230 236 234 230 235 234 222 222 227 231 233 235 237 240 240 244 250 255 265 273 277 284 293 304 316 329 342 343 314 231 210 192 183 168 155 171 175 165 170 187 184 170 169 173 171 165 164 164 162 160 160 161 164 165 164 161 156 154 155 154 151 150 146 139 132 124 112 99 89 82 76 71 66 66 70 73 73 72 70 69 67 66 64 62 60 57 56
233 234 234 235 237 237 235 229 225 226 231 236 234 231 236 238 229 226 227 226 229 233 237 240 241 244 249 251 258 265 268 272 279 287 300 311 323 330 314 256 225 202 190 187 170 173 183 176 173 185 191 181 174 177 178 173 169 167 165 163 161 163 167 169 167 166 164 162 162 163 162 160 157 151 143 134 119 102 92 84 78 71 64 61 66 71 72 71 69 67 66 64 62 59 57 53 51
232 233 233 234 235 236 236 232 226 226 231 236 236 232 236 239 237 234 232 229 231 235 240 243 244 244 248 248 251 259 263 266 271 277 284 296 305 313 306 270 240 217 197 197 192 179 185 188 181 179 190 192 182 180 181 179 175 172 170 169 168 169 172 175 175 173 172 171 170 170 171 172 169 166 160 146 131 111 98 90 82 72 63 58 61 67 69 68 66 64 61 60 58 56 54 52 50
233 233 232 233 235 236 236 234 229 227 230 234 235 234 236 240 242 242 239 235 237 240 244 246 244 244 245 245 246 253 259 262 266 272 276 282 290 295 294 274 250 235 212 201 207 197 192 197 189 178 187 197 192 186 185 184 182 178 177 177 178 178 177 179 181 182 181 179 178 177 180 183 181 180 175 161 147 130 113 98 87 76 63 58 58 61 65 65 62 59 56 55 53 53 52 50 48
233 233 232 233 235 235 236 235 232 229 230 233 235 235 238 240 243 245 241 236 238 241 244 245 243 243 243 242 244 249 256 262 265 269 272 275 278 281 281 273 252 242 228 210 209 215 208 206 198 184 185 194 197 195 191 189 189 186 183 183 182 182 181 181 184 186 188 188 187 187 190 193 193 191 188 177 168 160 142 110 84 69 60 56 54 55 59 58 55 51 49 48 48 48 48 47 44
232 232 231 232 234 234 235 234 232 231 231 234 235 235 238 239 242 246 245 238 233 233 238 241 240 242 243 243 246 250 256 262 265 268 270 270 271 273 272 267 250 239 235 221 210 215 218 212 207 197 190 192 197 200 198 195 195 192 188 186 185 185 187 188 190 191 192 193 194 197 200 201 201 202 201 196 191 186 173 145 70 51 48 47 46 47 49 49 46 42 39 39 40 40 40 40 38
232 231 229 231 232 233 234 234 232 232 233 235 236 235 236 237 240 246 248 241 232 231 238 241 241 244 246 247 249 252 255 259 264 268 270 267 267 269 266 261 254 242 238 232 218 214 217 215 211 206 198 196 199 201 203 202 200 197 192 189 189 190 191 193 197 200 201 202 202 204 207 207 208 213 217 219 218 216 213 214 275 13 34 36 37 38 39 39 36 34 32 32 32 32 32 33 32
232 231 230 230 231 232 233 233 232 231 231 235 236 234 233 235 238 242 243 241 236 237 241 243 243 245 247 249 250 252 254 258 262 266 266 265 264 264 264 260 255 247 241 239 231 220 219 221 218 211 204 202 203 204 207 207 203 200 197 195 194 194 195 196 197 202 205 208 210 211 212 213 214 220 226 233 235 236 238 244 256 293 348 6 17 25 27 26 25 26 26 26 25 24 25 26 27
232 232 231 232 232 233 233 233 233 232 230 232 235 233 232 236 237 235 238 241 240 240 241 241 242 244 246 248 250 252 255 257 260 263 263 262 260 260 262 261 257 251 244 241 237 229 222 223 225 218 208 206 208 208 210 210 204 202 201 200 198 197 197 197 196 198 203 207 211 213 214 215 218 222 229 235 238 240 241 245 254 273 298 316 329 350 6 11 14 17 18 18 17 16 19 22 23
233 233 233 233 234 234 234 235 235 231 228 230 233 234 233 235 235 234 238 241 240 240 239 240 241 242 245 247 249 251 254 257 258 260 261 260 258 257 258 260 258 253 248 243 239 235 229 223 224 224 216 211 211 211 213 212 206 204 205 204 203 201 200 199 197 198 202 206 210 212 214 216 219 222 228 235 238 239 239 241 251 266 284 295 299 306 325 343 353 2 6 6 8 8 11 14 16
233 234 234 234 235 235 235 235 234 230 228 230 231 231 230 232 235 235 237 238 238 239 239 240 241 242 243 246 248 251 253 256 256 257 259 259 256 256 256 257 256 253 250 247 243 239 234 227 223 223 220 217 216 214 215 215 209 206 208 209 208 206 203 204 204 203 204 207 209 212 216 219 222 225 230 235 239 240 239 239 247 258 270 281 284 287 293 305 323 336 344 350 354 356 358 1 4
230 231 232 232 233 234 233 232 231 227 227 228 228 228 226 231 236 234 234 237 238 240 240 240 241 242 243 244 247 250 251 253 254 254 257 258 256 256 255 253 253 252 250 249 247 242 237 232 226 222 219 218 219 218 215 216 214 209 210 213 213 210 207 207 209 209 209 210 211 214 219 223 227 229 231 235 240 242 242 241 245 254 261 268 273 276 278 284 298 311 321 330 338 341 343 345 349
228 229 230 229 230 232 230 229 228 225 225 226 226 224 222 228 234 233 234 238 239 241 242 241 242 242 242 243 243 244 245 247 250 252 254 255 255 255 256 254 251 249 248 248 248 245 241 236 231 226 221 218 220 221 218 216 216 213 212 216 218 215 211 209 211 213 214 214 214 215 219 224 228 230 231 233 237 241 243 244 246 253 257 261 265 269 273 277 287 298 308 317 324 327 328 329 332
228 229 229 229 230 231 229 227 227 225 225 227 225 221 218 225 233 233 234 237 238 240 242 241 241 241 241 241 240 240 241 243 246 249 251 252 253 255 257 256 252 247 246 246 247 247 244 241 236 230 226 222 220 221 220 219 218 216 214 218 221 220 215 212 214 216 217 216 216 215 218 223 226 228 229 230 234 239 242 244 248 252 256 260 263 268 274 279 286 295 302 308 313 316 316 315 317
227 227 226 227 228 229 228 227 227 225 226 228 226 222 221 227 234 236 235 237 238 239 239 239 240 240 239 239 239 239 240 242 245 247 250 251 251 254 254 254 252 247 243 243 244 245 244 243 239 232 229 228 225 223 221 219 218 217 217 219 223 224 220 217 216 217 217 217 217 216 218 221 223 225 228 230 233 236 240 244 250 253 257 261 267 275 281 288 293 297 301 304 306 307 308 307 307
226 225 224 225 227 227 228 228 228 227 227 228 228 223 223 229 235 237 236 237 238 237 237 238 238 238 237 237 237 238 240 241 243 244 247 248 249 251 251 252 253 249 243 241 242 243 243 242 241 235 229 229 232 231 226 222 219 217 217 219 224 227 225 222 219 219 220 219 219 219 219 221 223 224 227 230 232 235 237 242 248 253 257 261 269 279 287 294 299 302 304 304 305 305 305 305 305
226 225 225 226 226 226 226 225 225 224 224 226 227 224 222 227 234 236 235 236 237 237 236 237 238 237 237 237 237 237 238 239 240 242 244 246 249 251 251 252 253 252 246 241 241 242 242 242 243 240 233 228 229 229 226 225 223 221 220 221 224 228 228 225 222 223 224 224 222 221 221 222 224 225 226 229 231 233 234 237 242 248 254 261 270 279 288 295 300 304 306 305 306 306 306 307 307
226 226 226 227 227 227 226 225 224 222 221 222 224 223 220 224 231 233 233 234 236 237 236 236 237 238 237 238 237 237 237 237 239 243 245 247 250 252 253 254 255 253 247 242 240 240 240 240 241 242 238 231 227 226 225 224 223 222 223 223 224 228 230 229 226 226 228 227 225 224 224 225 226 227 228 230 230 231 231 232 236 241 251 260 268 276 284 292 298 303 305 305 306 307 309 310 309
224 224 225 226 226 226 226 225 225 224 222 223 225 222 220 224 230 232 232 233 234 236 237 236 237 238 238 238 238 237 238 239 240 243 246 248 250 252 254 255 256 254 250 245 242 239 238 237 238 239 238 233 230 228 227 225 223 222 223 224 225 228 231 232 230 229 230 229 228 227 228 229 229 229 230 231 231 231 230 230 233 239 247 255 264 271 279 287 293 299 302 305 308 309 310 311 311